This is the latest recevied weather packets stored in our database for station/object KM4NDN. If no packets are shown the sender has not sent any weather packets the latest 10 day(s).
| Time | Temp. | Humidity | Pressure | Rain* | Wind** | Luminosity | Snow |
|---|---|---|---|---|---|---|---|
| 1778157506 | 7.22° C | 76% | 1011.9 hPa | 0 mm | - | 258 W/m² | - |
| 1778157202 | 6.67° C | 77% | 1012 hPa | 0 mm | - | 217 W/m² | - |
| 1778156898 | 6.67° C | 76% | 1011.8 hPa | 0 mm | - | 178 W/m² | - |
| 1778156594 | 6.67° C | 77% | 1011.8 hPa | 0 mm | - | 175 W/m² | - |
| 1778156290 | 6.67° C | 78% | 1011.9 hPa | 0 mm | - | 151 W/m² | - |
| 1778155986 | 6.67° C | 79% | 1011.9 hPa | 0 mm | - | 134 W/m² | - |
| 1778155682 | 6.67° C | 79% | 1011.9 hPa | 0 mm | - | 127 W/m² | - |
| 1778155379 | 6.11° C | 80% | 1011.6 hPa | 0 mm | - | 119 W/m² | - |
| 1778155075 | 6.11° C | 80% | 1011.8 hPa | 0 mm | - | 104 W/m² | - |
| 1778154771 | 6.11° C | 81% | 1011.8 hPa | 0 mm | - | 113 W/m² | - |
| 1778154467 | 6.11° C | 81% | 1011.5 hPa | 0 mm | - | 104 W/m² | - |
| 1778154164 | 6.11° C | 82% | 1011.7 hPa | 0 mm | - | 88 W/m² | - |
| 1778153862 | 5.56° C | 82% | 1011.5 hPa | 0 mm | - | 75 W/m² | - |
| 1778153558 | 5.56° C | 82% | 1011.5 hPa | 0 mm | - | 73 W/m² | - |
| 1778153256 | 5.56° C | 82% | 1011.6 hPa | 0 mm | - | 67 W/m² | - |
| 1778152953 | 5.56° C | 83% | 1011.4 hPa | 0 mm | - | 60 W/m² | - |
| 1778152651 | 5.56° C | 82% | 1011.4 hPa | 0 mm | - | 52 W/m² | - |
| 1778152347 | 5.56° C | 82% | 1011.4 hPa | 0 mm | - | 38 W/m² | - |
| 1778152043 | 5.56° C | 82% | 1011.3 hPa | 0 mm | - | 38 W/m² | - |
| 1778151740 | 5.56° C | 82% | 1011.3 hPa | 0 mm | - | 40 W/m² | - |
| 1778151437 | 5.56° C | 82% | 1011 hPa | 0 mm | - | 29 W/m² | - |
| 1778151133 | 5.56° C | 82% | 1011 hPa | 0 mm | - | 27 W/m² | - |
| 1778150830 | 5.56° C | 82% | 1011 hPa | 0 mm | - | 22 W/m² | - |
| 1778150527 | 5.56° C | 82% | 1011.2 hPa | 0 mm | - | 18 W/m² | - |
| 1778150223 | 5° C | 82% | 1010.9 hPa | 0 mm | - | 12 W/m² | - |
* Rain latest hour (hover to see other rain measurements)
** Current wind speed in m/s (hover to see current wind gust speed)